Zurück zum Katalog

CZ-6A DEB

AktivPO
NORAD 54428·DEBRIS·🇨🇳 China

Gestartet Nov 11, 2022 von Taiyuan Satellite Launch Center

Loading…

Nächste Überflüge (nächste 24 Stunden)

TLE

AktuellSource: Space-Track

Epoche: Sep 14, 2026, 13:36 UTC

1 54428U 22151FC  26257.56690877  .00000029  00000-0  85163-4 0  9992
2 54428  99.0856 118.9440 0463982 234.6334 121.0598 13.26971909185722

Verfolge CZ-6A DEB in Echtzeit mit AllMySat

Download on the App Store